Location: Bailleul
(50.3375°N, 2.8513°E)
Time: 20:03:57
(UTC+00:00)

Cosmos 540 Rocket - Pass Details

Date: 19 April 2021
Orbit: 741 x 753 km, 74.1° (Epoch: 17 May)

Event Time Altitude Azimuth Distance (km) Brightness Sun altitude
Rises 21:31:00 0° 339° (NNW) 3,200 8.1 -21.4°
Reaches altitude 10° 21:33:29 10° 346° (NNW) 2,270 6.9 -21.6°
Maximum altitude 21:38:24 45° 58° (ENE) 1,016 4.0 -22.0°
Enters shadow 21:39:30 39° 92° (E) 1,111 4.0 -22.1°
